VOZ1163 YSSY-YCFS

Flight info

Callsign VOZ1163
Flight time 0h 49m
Altitude 32000
Route TESAT H252 UPNEX H140 MATLA DCT BANDA DCT CFS
Aircraft B738/M-SDE2E3FGHIRWXY/LB1

Departure

Time 2026-05-04 03:03
Airport Sydney Kingsford Smith International Airport (YSSY)

Arrival

Time 2026-05-04 03:53
Airport Coffs Harbour Airport (YCFS)
Time Latitude Longitude Altitude Speed Heading
2026-05-04 02:18 -33.93576 151.17900 28 ft 0 kts 101°
2026-05-04 02:45 -33.93576 151.17897 29 ft 2 kts 101°
2026-05-04 02:45 -33.93572 151.17876 50 ft 3 kts 101°
2026-05-04 02:45 -33.93569 151.17853 9 ft 2 kts 101°
2026-05-04 02:45 -33.93565 151.17835 29 ft 3 kts 136°
2026-05-04 02:46 -33.93553 151.17830 27 ft 3 kts 191°
2026-05-04 02:46 -33.93534 151.17835 29 ft 2 kts 191°
2026-05-04 02:46 -33.93532 151.17836 29 ft 1 kts 190°
2026-05-04 02:46 -33.93550 151.17832 29 ft 3 kts 190°
2026-05-04 02:47 -33.93570 151.17827 29 ft 3 kts 190°
2026-05-04 02:47 -33.93589 151.17823 29 ft 2 kts 189°
2026-05-04 02:47 -33.93596 151.17822 29 ft 0 kts 189°
2026-05-04 02:50 -33.93598 151.17821 29 ft 1 kts 189°
2026-05-04 02:50 -33.93624 151.17816 29 ft 7 kts 189°
2026-05-04 02:50 -33.93676 151.17803 29 ft 8 kts 193°
2026-05-04 02:51 -33.93735 151.17786 29 ft 11 kts 194°
2026-05-04 02:51 -33.93823 151.17764 29 ft 15 kts 181°
2026-05-04 02:51 -33.93936 151.17788 28 ft 18 kts 168°
2026-05-04 02:51 -33.94062 151.17821 28 ft 19 kts 168°
2026-05-04 02:52 -33.94187 151.17853 29 ft 18 kts 168°
2026-05-04 02:52 -33.94309 151.17885 29 ft 17 kts 168°
2026-05-04 02:52 -33.94424 151.17911 29 ft 16 kts 179°
2026-05-04 02:52 -33.94528 151.17884 29 ft 15 kts 171°
2026-05-04 02:53 -33.94630 151.17910 29 ft 15 kts 168°
2026-05-04 02:53 -33.94729 151.17936 29 ft 15 kts 168°
2026-05-04 02:53 -33.94837 151.17964 29 ft 17 kts 167°
2026-05-04 02:53 -33.94951 151.17994 29 ft 17 kts 168°
2026-05-04 02:54 -33.95045 151.18017 29 ft 12 kts 168°
2026-05-04 02:54 -33.95100 151.18077 29 ft 11 kts 98°
2026-05-04 02:54 -33.95086 151.18179 29 ft 14 kts 78°
2026-05-04 02:54 -33.95063 151.18308 29 ft 16 kts 77°
2026-05-04 02:55 -33.95050 151.18381 29 ft 1 kts 78°
2026-05-04 02:55 -33.95048 151.18391 29 ft 1 kts 78°
2026-05-04 02:55 -33.95048 151.18392 29 ft 0 kts 78°
2026-05-04 02:57 -33.95043 151.18421 29 ft 8 kts 78°
2026-05-04 02:57 -33.95073 151.18509 29 ft 15 kts 148°
2026-05-04 02:57 -33.95159 151.18591 29 ft 17 kts 138°
2026-05-04 02:57 -33.95258 151.18689 29 ft 21 kts 151°
2026-05-04 02:58 -33.95415 151.18744 29 ft 26 kts 168°
2026-05-04 02:58 -33.95586 151.18788 29 ft 24 kts 168°
2026-05-04 02:58 -33.95746 151.18829 29 ft 23 kts 167°
2026-05-04 02:58 -33.95899 151.18870 29 ft 22 kts 168°
2026-05-04 02:59 -33.96050 151.18909 29 ft 24 kts 168°
2026-05-04 02:59 -33.96213 151.18951 29 ft 23 kts 167°
2026-05-04 02:59 -33.96368 151.18992 29 ft 23 kts 168°
2026-05-04 02:59 -33.96523 151.19032 29 ft 23 kts 168°
2026-05-04 03:00 -33.96672 151.19071 29 ft 19 kts 168°
2026-05-04 03:00 -33.96803 151.19063 29 ft 19 kts 177°
2026-05-04 03:00 -33.96927 151.19091 29 ft 18 kts 168°
2026-05-04 03:00 -33.97029 151.19117 29 ft 9 kts 168°
2026-05-04 03:01 -33.97061 151.19174 29 ft 9 kts 83°
2026-05-04 03:01 -33.97056 151.19205 29 ft 0 kts 78°
2026-05-04 03:01 -33.97056 151.19208 29 ft 2 kts 78°
2026-05-04 03:02 -33.97044 151.19272 27 ft 11 kts 78°
2026-05-04 03:02 -33.97026 151.19347 24 ft 8 kts 49°
2026-05-04 03:02 -33.96973 151.19349 24 ft 8 kts 348°
2026-05-04 03:02 -33.96921 151.19336 24 ft 8 kts 348°
2026-05-04 03:03 -33.96735 151.19288 23 ft 68 kts 347°
2026-05-04 03:03 -33.95981 151.19091 29 ft 151 kts 347°
2026-05-04 03:03 -33.94833 151.18789 730 ft 175 kts 349°
2026-05-04 03:03 -33.93562 151.18742 1615 ft 188 kts 14°
2026-05-04 03:04 -33.92363 151.19466 2453 ft 207 kts 31°
2026-05-04 03:04 -33.91133 151.20575 2773 ft 230 kts 33°
2026-05-04 03:04 -33.89842 151.21766 3421 ft 235 kts 31°
2026-05-04 03:04 -33.88516 151.22958 4013 ft 247 kts 31°
2026-05-04 03:05 -33.87086 151.24216 4626 ft 259 kts 31°
2026-05-04 03:05 -33.85622 151.25496 5545 ft 261 kts 31°
2026-05-04 03:05 -33.84196 151.26853 6482 ft 265 kts 44°
2026-05-04 03:05 -33.83224 151.28762 7383 ft 273 kts 63°
2026-05-04 03:06 -33.82580 151.30940 8200 ft 279 kts 67°
2026-05-04 03:06 -33.81977 151.33186 8990 ft 285 kts 68°
2026-05-04 03:06 -33.81375 151.35475 9798 ft 289 kts 66°
2026-05-04 03:06 -33.80435 151.37572 10530 ft 284 kts 47°
2026-05-04 03:07 -33.79189 151.39419 11317 ft 285 kts 45°
2026-05-04 03:07 -33.77911 151.41262 12067 ft 289 kts 45°
2026-05-04 03:07 -33.76616 151.43131 12806 ft 293 kts 46°
2026-05-04 03:07 -33.75307 151.45035 13551 ft 297 kts 46°
2026-05-04 03:08 -33.73987 151.46966 14249 ft 301 kts 46°
2026-05-04 03:08 -33.72655 151.48924 14909 ft 304 kts 46°
2026-05-04 03:08 -33.71310 151.50906 15578 ft 308 kts 46°
2026-05-04 03:08 -33.69950 151.52911 16255 ft 311 kts 46°
2026-05-04 03:09 -33.68575 151.54937 16927 ft 315 kts 46°
2026-05-04 03:09 -33.67184 151.56985 17599 ft 318 kts 46°
2026-05-04 03:09 -33.65763 151.59033 18285 ft 319 kts 40°
2026-05-04 03:09 -33.64009 151.60612 18831 ft 314 kts 22°
2026-05-04 03:10 -33.61973 151.61481 19400 ft 310 kts 10°
2026-05-04 03:10 -33.59869 151.62106 19966 ft 313 kts
2026-05-04 03:10 -33.57762 151.62700 20510 ft 317 kts
2026-05-04 03:10 -33.55602 151.63316 21070 ft 321 kts
2026-05-04 03:11 -33.53423 151.63955 21640 ft 324 kts
2026-05-04 03:11 -33.51223 151.64613 22193 ft 328 kts
2026-05-04 03:11 -33.48998 151.65284 22743 ft 331 kts
2026-05-04 03:11 -33.46753 151.65963 23311 ft 334 kts
2026-05-04 03:12 -33.44482 151.66456 23826 ft 331 kts 358°
2026-05-04 03:12 -33.42201 151.66468 24334 ft 325 kts 348°
2026-05-04 03:12 -33.39979 151.66081 24880 ft 322 kts 345°
2026-05-04 03:12 -33.37774 151.65632 25413 ft 321 kts 344°
2026-05-04 03:13 -33.35571 151.65171 25929 ft 322 kts 343°
2026-05-04 03:13 -33.33362 151.64711 26438 ft 322 kts 343°
2026-05-04 03:13 -33.31151 151.64256 26930 ft 323 kts 343°
2026-05-04 03:13 -33.28935 151.63804 27425 ft 324 kts 343°
2026-05-04 03:14 -33.26714 151.63356 27919 ft 324 kts 342°
2026-05-04 03:14 -33.24489 151.62909 28398 ft 325 kts 342°
2026-05-04 03:14 -33.22260 151.62463 28868 ft 325 kts 342°
2026-05-04 03:14 -33.20010 151.62012 28996 ft 333 kts 342°
2026-05-04 03:15 -33.17693 151.61544 29035 ft 342 kts 342°
2026-05-04 03:15 -33.12862 151.60576 29033 ft 362 kts 343°
2026-05-04 03:16 -33.07794 151.59570 29029 ft 373 kts 343°
2026-05-04 03:16 -33.02692 151.58570 29020 ft 370 kts 343°
2026-05-04 03:17 -32.97622 151.57571 29025 ft 368 kts 343°
2026-05-04 03:17 -32.92585 151.56575 29025 ft 366 kts 343°
2026-05-04 03:18 -32.87568 151.55582 29023 ft 365 kts 343°
2026-05-04 03:18 -32.82563 151.54593 29034 ft 364 kts 343°
2026-05-04 03:19 -32.77504 151.53872 29020 ft 374 kts 353°
2026-05-04 03:19 -32.72354 151.54910 29017 ft 387 kts
2026-05-04 03:20 -32.67363 151.57497 29036 ft 394 kts 14°
2026-05-04 03:20 -32.62343 151.60283 29044 ft 402 kts 15°
2026-05-04 03:21 -32.57271 151.63083 29028 ft 402 kts 14°
2026-05-04 03:21 -32.53045 151.65393 29033 ft 403 kts 14°
2026-05-04 03:22 -32.47952 151.68159 29024 ft 402 kts 14°
2026-05-04 03:22 -32.42858 151.70918 29015 ft 402 kts 14°
2026-05-04 03:23 -32.37769 151.73668 29027 ft 402 kts 14°
2026-05-04 03:23 -32.32674 151.76417 29024 ft 402 kts 14°
2026-05-04 03:24 -32.27576 151.79165 29029 ft 403 kts 14°
2026-05-04 03:24 -32.22475 151.81911 29029 ft 402 kts 15°
2026-05-04 03:25 -32.17379 151.84653 29031 ft 403 kts 14°
2026-05-04 03:25 -32.12278 151.87392 29047 ft 403 kts 15°
2026-05-04 03:26 -32.07168 151.90133 29032 ft 403 kts 15°
2026-05-04 03:26 -32.02089 151.92861 29020 ft 393 kts 14°
2026-05-04 03:27 -31.97174 151.95501 29038 ft 385 kts 14°
2026-05-04 03:27 -31.92297 151.98098 28727 ft 389 kts 14°
2026-05-04 03:27 -31.89861 151.99400 28390 ft 381 kts 15°
2026-05-04 03:28 -31.87433 152.00700 28037 ft 374 kts 15°
2026-05-04 03:28 -31.85115 152.01941 27633 ft 368 kts 15°
2026-05-04 03:28 -31.82813 152.03172 27287 ft 361 kts 15°
2026-05-04 03:28 -31.80545 152.04382 26899 ft 356 kts 14°
2026-05-04 03:29 -31.78305 152.05574 26540 ft 351 kts 15°
2026-05-04 03:29 -31.76114 152.06738 26181 ft 346 kts 15°
2026-05-04 03:29 -31.73914 152.07907 25849 ft 343 kts 15°
2026-05-04 03:29 -31.71725 152.09066 25502 ft 349 kts 15°
2026-05-04 03:30 -31.69454 152.10258 25130 ft 365 kts 16°
2026-05-04 03:30 -31.67134 152.11482 24746 ft 364 kts 16°
2026-05-04 03:30 -31.64840 152.12704 24373 ft 360 kts 16°
2026-05-04 03:30 -31.62578 152.13910 23997 ft 355 kts 16°
2026-05-04 03:31 -31.60341 152.15101 23628 ft 351 kts 16°
2026-05-04 03:31 -31.58128 152.16277 23197 ft 347 kts 17°
2026-05-04 03:31 -31.55946 152.17436 22814 ft 342 kts 17°
2026-05-04 03:31 -31.53791 152.18578 22442 ft 337 kts 17°
2026-05-04 03:32 -31.51674 152.19700 22085 ft 332 kts 17°
2026-05-04 03:32 -31.49581 152.20807 21740 ft 329 kts 17°
2026-05-04 03:32 -31.47502 152.21905 21403 ft 327 kts 17°
2026-05-04 03:32 -31.45425 152.22999 21068 ft 330 kts 18°
2026-05-04 03:33 -31.43291 152.24118 20740 ft 343 kts 18°
2026-05-04 03:33 -31.41092 152.25272 20369 ft 347 kts 18°
2026-05-04 03:33 -31.38901 152.26429 19988 ft 343 kts 18°
2026-05-04 03:33 -31.36743 152.27572 19618 ft 337 kts 19°
2026-05-04 03:34 -31.34622 152.28695 19275 ft 332 kts 19°
2026-05-04 03:34 -31.32527 152.29800 18900 ft 328 kts 19°
2026-05-04 03:34 -31.30466 152.30887 18579 ft 324 kts 19°
2026-05-04 03:34 -31.28408 152.31970 18203 ft 325 kts 19°
2026-05-04 03:35 -31.26351 152.33051 17837 ft 324 kts 19°
2026-05-04 03:35 -31.24275 152.34139 17477 ft 330 kts 20°
2026-05-04 03:35 -31.22164 152.35246 17114 ft 332 kts 19°
2026-05-04 03:35 -31.20069 152.36348 16757 ft 328 kts 20°
2026-05-04 03:36 -31.18000 152.37436 16395 ft 324 kts 20°
2026-05-04 03:36 -31.15959 152.38508 16052 ft 319 kts 20°
2026-05-04 03:36 -31.13948 152.39564 15706 ft 315 kts 20°
2026-05-04 03:36 -31.11966 152.40605 15386 ft 310 kts 20°
2026-05-04 03:37 -31.10009 152.41631 15045 ft 307 kts 20°
2026-05-04 03:37 -31.08074 152.42644 14725 ft 303 kts 20°
2026-05-04 03:37 -31.06171 152.43639 14405 ft 305 kts 20°
2026-05-04 03:37 -31.04204 152.44667 14079 ft 307 kts 20°
2026-05-04 03:38 -31.02253 152.45686 13714 ft 315 kts 21°
2026-05-04 03:38 -31.00245 152.46734 13351 ft 316 kts 21°
2026-05-04 03:38 -30.98226 152.47790 12992 ft 312 kts 21°
2026-05-04 03:38 -30.96284 152.48809 12647 ft 309 kts 21°
2026-05-04 03:39 -30.94334 152.49828 12307 ft 306 kts 21°
2026-05-04 03:39 -30.92404 152.50835 11978 ft 302 kts 21°
2026-05-04 03:39 -30.90494 152.51832 11643 ft 299 kts 21°
2026-05-04 03:39 -30.88604 152.52815 11314 ft 296 kts 22°
2026-05-04 03:40 -30.86738 152.53789 11003 ft 293 kts 22°
2026-05-04 03:40 -30.84888 152.54754 10675 ft 290 kts 22°
2026-05-04 03:40 -30.83056 152.55708 10405 ft 286 kts 22°
2026-05-04 03:40 -30.81275 152.56634 10268 ft 276 kts 21°
2026-05-04 03:41 -30.79645 152.57727 10119 ft 269 kts 41°
2026-05-04 03:41 -30.78378 152.59309 9917 ft 269 kts 46°
2026-05-04 03:41 -30.77133 152.60953 9628 ft 273 kts 46°
2026-05-04 03:41 -30.75873 152.62620 9343 ft 276 kts 46°
2026-05-04 03:42 -30.74594 152.64304 9066 ft 279 kts 46°
2026-05-04 03:42 -30.73321 152.65980 8771 ft 274 kts 46°
2026-05-04 03:42 -30.72065 152.67627 8480 ft 271 kts 46°
2026-05-04 03:42 -30.70822 152.69252 8169 ft 267 kts 45°
2026-05-04 03:43 -30.69595 152.70854 7893 ft 264 kts 45°
2026-05-04 03:43 -30.68383 152.72432 7616 ft 260 kts 46°
2026-05-04 03:43 -30.67184 152.73991 7350 ft 257 kts 45°
2026-05-04 03:43 -30.66000 152.75531 7078 ft 253 kts 45°
2026-05-04 03:44 -30.64837 152.77042 6835 ft 249 kts 45°
2026-05-04 03:44 -30.63682 152.78543 6583 ft 250 kts 45°
2026-05-04 03:44 -30.62512 152.80062 6317 ft 255 kts 45°
2026-05-04 03:44 -30.61317 152.81613 6052 ft 260 kts 45°
2026-05-04 03:45 -30.60126 152.83161 5929 ft 254 kts 45°
2026-05-04 03:45 -30.58970 152.84664 5805 ft 245 kts 45°
2026-05-04 03:45 -30.57880 152.86066 5722 ft 233 kts 44°
2026-05-04 03:45 -30.56837 152.87422 5605 ft 218 kts 44°
2026-05-04 03:46 -30.55862 152.88688 5501 ft 204 kts 44°
2026-05-04 03:46 -30.54852 152.89808 5263 ft 198 kts 37°
2026-05-04 03:46 -30.53799 152.90851 5050 ft 200 kts 37°
2026-05-04 03:46 -30.52763 152.91889 4867 ft 196 kts 37°
2026-05-04 03:47 -30.51746 152.92906 4632 ft 189 kts 37°
2026-05-04 03:47 -30.50738 152.93872 4380 ft 189 kts 36°
2026-05-04 03:47 -30.49743 152.94870 4132 ft 187 kts 36°
2026-05-04 03:47 -30.48761 152.95851 3905 ft 186 kts 37°
2026-05-04 03:48 -30.47783 152.96824 3692 ft 189 kts 38°
2026-05-04 03:48 -30.46788 152.97826 3412 ft 185 kts 37°
2026-05-04 03:48 -30.45825 152.98760 3172 ft 172 kts 36°
2026-05-04 03:48 -30.44945 152.99631 2907 ft 160 kts 37°
2026-05-04 03:49 -30.44133 153.00440 2704 ft 148 kts 37°
2026-05-04 03:49 -30.43386 153.01187 2570 ft 140 kts 37°
2026-05-04 03:49 -30.42641 153.01927 2347 ft 138 kts 37°
2026-05-04 03:49 -30.41937 153.02591 2174 ft 129 kts 39°
2026-05-04 03:50 -30.41305 153.03287 2018 ft 118 kts 34°
2026-05-04 03:50 -30.40619 153.03921 1870 ft 132 kts 38°
2026-05-04 03:50 -30.39919 153.04619 1683 ft 131 kts 38°
2026-05-04 03:50 -30.39227 153.05320 1493 ft 131 kts 42°
2026-05-04 03:51 -30.38550 153.05992 1324 ft 127 kts 37°
2026-05-04 03:51 -30.37875 153.06647 1147 ft 128 kts 37°
2026-05-04 03:51 -30.37219 153.07299 980 ft 121 kts 40°
2026-05-04 03:51 -30.36552 153.07933 795 ft 122 kts 39°
2026-05-04 03:52 -30.35915 153.08584 636 ft 123 kts 43°
2026-05-04 03:52 -30.35266 153.09226 424 ft 122 kts 38°
2026-05-04 03:52 -30.34637 153.09857 313 ft 117 kts 39°
2026-05-04 03:52 -30.34035 153.10459 117 ft 111 kts 38°
2026-05-04 03:53 -30.33464 153.11025 24 ft 97 kts 39°
2026-05-04 03:53 -30.33103 153.11384 27 ft 47 kts 40°
2026-05-04 03:53 -30.32936 153.11550 26 ft 24 kts 41°
2026-05-04 03:53 -30.32813 153.11672 25 ft 23 kts 40°
2026-05-04 03:54 -30.32695 153.11789 29 ft 22 kts 40°
2026-05-04 03:54 -30.32601 153.11881 27 ft 11 kts 40°
2026-05-04 03:54 -30.32546 153.11913 29 ft 9 kts 352°
2026-05-04 03:54 -30.32500 153.11868 29 ft 9 kts 311°
2026-05-04 03:55 -30.32460 153.11816 30 ft 9 kts 311°
2026-05-04 03:55 -30.32422 153.11765 26 ft 8 kts 309°
2026-05-04 03:55 -30.32386 153.11714 30 ft 8 kts 310°
2026-05-04 03:55 -30.32367 153.11659 27 ft 8 kts 254°
2026-05-04 03:56 -30.32387 153.11627 27 ft 3 kts 239°
2026-05-04 03:56 -30.32383 153.11607 26 ft 3 kts 314°
2026-05-04 03:56 -30.32367 153.11598 29 ft 2 kts 336°
2026-05-04 03:56 -30.32357 153.11594 28 ft 1 kts 339°
2026-05-04 03:57 -30.32355 153.11593 28 ft 0 kts 340°